Weather History for KUZA - March, 2014

Change the Weather History Date:

Wednesday, March 5, 2014

  Actual Average Record
Temperature  
Mean Temperature 43 °F -  
Max Temperature 53 °F 64 °F 83 °F (1955)
Min Temperature 33 °F 42 °F 11 °F (1960)
Degree Days  
Heating Degree Days 22    
Moisture  
Dew Point 22 °F    
Average Humidity 51    
Maximum Humidity 75    
Minimum Humidity 32    
Precipitation  
Precipitation 0.00 in - - ()
Sea Level Pressure  
Sea Level Pressure 30.19 in    
Wind  
Wind Speed 3 mph (ENE)    
Max Wind Speed 7 mph    
Max Gust Speed -    
Visibility 8 miles    
Events      
Averages and records for this station are not official NWS values.
T = Trace of Precipitation, MM = Missing Value Source: NWS Daily Summary

Daily Weather History Graph

Daily Weather History Graph

Search for Another Location

Airport or City:

Trip Planner

Search our weather history database for the weather conditions in past years. The results will help you decide how hot, cold, wet, or windy it might be!

Date:

Astronomy

Mar. 05, 2014 Rise Set
Actual Time 6:48 AM EST 6:23 PM EST
Civil Twilight 6:23 AM EST 6:48 PM EST
Nautical Twilight 5:53 AM EST 7:18 PM EST
Astronomical Twilight 5:24 AM EST 7:47 PM EST
Moon 9:24 AM EST (3/5) 11:17 PM EST (3/5)
Length of Visible Light 12h 25m
Length of Day
11h 35m
Waxing Crescent, 23% of the Moon is Illuminated
Mar 5
Waxing Crescent
Mar 8
First Quarter
Mar 16
Full
Mar 23
Last Quarter
Mar 30
New

Hourly Weather History & Observations

Time (EST) Temp. Windchill Dew Point Humidity Pressure Visibility Wind Dir Wind Speed Gust Speed Precip Events Conditions
12:54 AM 36.0 °F - 16.0 °F 44% 30.20 in 10.0 mi Calm Calm - N/A   Mostly Cloudy
1:54 AM 36.0 °F 31.1 °F 16.0 °F 44% 30.18 in 10.0 mi Variable 5.8 mph - N/A   Overcast
2:54 AM 35.1 °F 32.2 °F 17.1 °F 48% 30.19 in 10.0 mi NNE 3.5 mph - N/A   Overcast
3:54 AM 35.1 °F - 17.1 °F 48% 30.19 in 10.0 mi Calm Calm - N/A   Overcast
4:54 AM 35.1 °F - 17.1 °F 48% 30.20 in 10.0 mi Calm Calm - N/A   Mostly Cloudy
5:54 AM 34.0 °F - 18.0 °F 52% 30.21 in 10.0 mi Calm Calm - N/A   Clear
6:54 AM 33.1 °F - 21.0 °F 61% 30.21 in 10.0 mi Calm Calm - N/A   Clear
7:54 AM 34.0 °F 31.0 °F 19.9 °F 56% 30.21 in 10.0 mi NNE 3.5 mph - N/A   Clear
8:54 AM 36.0 °F 32.1 °F 17.1 °F 46% 30.21 in 10.0 mi NNE 4.6 mph - N/A   Clear
9:54 AM 39.9 °F 35.1 °F 19.0 °F 43% 30.21 in 10.0 mi Variable 6.9 mph - N/A   Clear
10:54 AM 42.1 °F 37.7 °F 19.0 °F 40% 30.22 in 10.0 mi North 6.9 mph - N/A   Clear
11:54 AM 43.0 °F 41.3 °F 19.0 °F 38% 30.21 in 10.0 mi North 3.5 mph - N/A   Clear
12:54 PM 45.0 °F 42.6 °F 18.0 °F 34% 30.17 in 10.0 mi ENE 4.6 mph - N/A   Clear
1:54 PM 48.9 °F - 19.9 °F 32% 30.14 in 10.0 mi NE 5.8 mph - N/A   Clear
2:54 PM 50.0 °F - 23.0 °F 35% 30.13 in 10.0 mi Variable 4.6 mph - N/A   Clear
3:54 PM 53.1 °F - 24.1 °F 32% 30.12 in 10.0 mi Variable 4.6 mph - N/A   Clear
4:54 PM 53.1 °F - 24.1 °F 32% 30.11 in 10.0 mi Calm Calm - N/A   Clear
5:54 PM 51.1 °F - 24.1 °F 35% 30.14 in 10.0 mi East 3.5 mph - N/A   Clear
6:54 PM 44.1 °F 42.5 °F 28.0 °F 53% 30.17 in 2.5 mi ESE 3.5 mph - N/A   Haze
7:04 PM 45.0 °F 43.5 °F 26.1 °F 48% 30.15 in 4.0 mi SE 3.5 mph - N/A   Haze
7:50 PM 39.2 °F 37.0 °F 26.6 °F 61% 30.18 in 1.8 mi ESE 3.5 mph - N/A   Haze
7:54 PM 39.0 °F 36.8 °F 28.0 °F 65% 30.21 in 1.5 mi ESE 3.5 mph - N/A   Haze
8:18 PM 39.0 °F 36.8 °F 28.0 °F 65% 30.20 in 3.0 mi SE 3.5 mph - N/A   Haze
8:29 PM 37.9 °F - 28.0 °F 68% 30.20 in 2.0 mi Calm Calm - N/A   Haze
8:54 PM 36.0 °F - 27.0 °F 70% 30.23 in 2.5 mi Calm Calm - N/A   Haze
9:22 PM 34.0 °F - 27.0 °F 75% 30.20 in 4.0 mi Calm Calm - N/A   Haze
9:54 PM 35.1 °F 31.0 °F 26.1 °F 70% 30.24 in 10.0 mi NNE 4.6 mph - N/A   Clear
10:54 PM 36.0 °F - 26.1 °F 67% 30.25 in 10.0 mi Calm Calm - N/A   Clear
11:54 PM 37.9 °F 34.4 °F 25.0 °F 60% 30.25 in 10.0 mi ENE 4.6 mph - N/A   Clear